Location: Janeiro
(34.9957°N, 76.7652°W)
Time: 04:31:42
(UTC+00:00)

Cosmos 1674 Rocket - Pass Details

Date: 14 December 2019
Orbit: 602 x 631 km, 82.5° (Epoch: 24 January)

Event Time Altitude Azimuth Distance (km) Brightness Sun altitude
Rises 23:20:19 0° 169° (SSE) 2,901 7.1 -16.7°
Reaches altitude 10° 23:22:38 10° 162° (SSE) 1,995 6.1 -17.1°
Maximum altitude 23:26:47 41° 92° (E) 912 3.9 -17.9°
Enters shadow 23:27:34 37° 65° (ENE) 972 4.0 -18.1°
